Regional Weather Roundup
Issued by NWS Columbia, SC

Home | Current Version | Previous Version | Text Only | Print | Product List | Glossary On
Versions: 1 2 3 4 5 6 7 8 9 10 11 12 13 14 15 16 17 18 19 20 21 22 23 24 25 26 27 28 29 30 31 32 33 34 35 36 37 38 39 40 41 42 43 44 45 46 47 48 49 50
000
ASUS42 KCAE 231210
RWRCAE
REGIONAL WEATHER ROUNDUP
NATIONAL WEATHER SERVICE COLUMBIA SC
800 AM EDT SAT MAY 23 2015

NOTE: "FAIR" INDICATES FEW OR NO CLOUDS BELOW 12,000 FEET WITH NO
SIGNIFICANT WEATHER AND/OR OBSTRUCTIONS TO VISIBILITY.

NOT ALL STATIONS ARE QUALITY CONTROLLED BY THE NATIONAL
WEATHER SERVICE. USE DATA WITH CAUTION...ESPECIALLY
DEWPOINT OBSERVATIONS.

SCZ001>056-GAZ040-063>065-077-231300-
...UPSTATE SOUTH CAROLINA...

CITY           SKY/WX    TMP DP  RH WIND       PRES   REMARKS
ANDERSON       SUNNY     61  47  59 NE3       30.39R
6HR MIN TEMP:  55; 6HR MAX TEMP:  61;

LIBERTY        SUNNY     52  50  92 CALM      30.38R
6HR MIN TEMP:  47; 6HR MAX TEMP:  79;

SPARTANBURG    SUNNY     59  48  67 NE3       30.40R
CLEMSON        SUNNY     62  43  49 CALM      30.40R
6HR MIN TEMP:  58; 6HR MAX TEMP:  63;

GREENVILLE     SUNNY     62  42  47 NE9       30.40R
6HR MIN TEMP:  57; 6HR MAX TEMP:  63;

GREENWOOD      SUNNY     57  50  77 N5        30.40R
6HR MIN TEMP:  49; 6HR MAX TEMP:  57;

GREER          SUNNY     60  46  59 NE5       30.39R
6HR MIN TEMP:  53; 6HR MAX TEMP:  60;

ROCK HILL      SUNNY     58  56  93 N3        30.40R
6HR MIN TEMP:  47; 6HR MAX TEMP:  58;

CHESTER        SUNNY     61  48  63 CALM      30.40R
LAURENS        SUNNY     55  52  88 CALM      30.40R


...CENTRAL SOUTH CAROLINA...

CITY           SKY/WX    TMP DP  RH WIND       PRES   REMARKS
COLUMBIA APT   SUNNY     58  51  78 CALM      30.37R
6HR MIN TEMP:  51; 6HR MAX TEMP:  58;

COLUMBIA OWENS SUNNY     62  50  64 CALM      30.38R
6HR MIN TEMP:  55; 6HR MAX TEMP:  62;

DARLINGTON     SUNNY     59  48  67 N3        30.40R
6HR MIN TEMP:  52; 6HR MAX TEMP:  59;

FLORENCE       SUNNY     61  54  77 N6        30.38R
6HR MIN TEMP:  52; 6HR MAX TEMP:  61;

MCENTIRE ANGB  SUNNY     58  53  83 CALM      30.38R
6HR MIN TEMP:  48; 6HR MAX TEMP:  59;

ORANGEBURG     SUNNY     64  58  80 CALM      30.37R
6HR MIN TEMP:  55; 6HR MAX TEMP:  64;

SUMTER SHAW    SUNNY     60  51  72 NE2       30.37R
6HR MIN TEMP:  52; 6HR MAX TEMP:  60;

NEWBERRY       SUNNY     55  48  76 N3        30.42R
AIKEN          FAIR      59  50  72 CALM      30.39R
BARNWELL       FAIR      61  57  88 CALM      30.37R
MANNING        FAIR      59  50  72 CALM      30.37R HAZE
CAMDEN         FAIR      59  48  67 CALM      30.39R
LANCASTER      SUNNY     55  54  94 CALM      30.40R
WINNSBORO      SUNNY     63  52  67 CALM      30.39R


...EASTERN AND COASTAL SOUTH CAROLINA...

CITY           SKY/WX    TMP DP  RH WIND       PRES   REMARKS
MYRTLE BEACH   SUNNY     64  57  77 NE6       30.38R
N MYRTLE BCH   SUNNY     64  59  83 N6        30.36R
6HR MIN TEMP:  54; 6HR MAX TEMP:  64;

CONWAY         FAIR      61  61 100 CALM      30.38R FOG
MARION         FAIR      59  55  88 NE3       30.38R
HARTSVILLE     FAIR      63  54  72 CALM      30.38R
FLORENCE       SUNNY     61  54  77 N6        30.38R
6HR MIN TEMP:  52; 6HR MAX TEMP:  61;

DARLINGTON     SUNNY     59  48  67 N3        30.40R
6HR MIN TEMP:  52; 6HR MAX TEMP:  59;

CHARLESTON APT MOSUNNY   66  61  84 NE7       30.34R
6HR MIN TEMP:  60; 6HR MAX TEMP:  66;

MOUNT PLEASANT FAIR      63  61  94 N6        30.35R
WALTERBORO     SUNNY     64  59  82 NE6       30.36R
BEAUFORT       SUNNY     67  62  84 NE9       30.34R
6HR MIN TEMP:  62; 6HR MAX TEMP:  67;



...EASTERN GEORGIA...

CITY           SKY/WX    TMP DP  RH WIND       PRES   REMARKS
AUGUSTA BUSH F SUNNY     59  55  87 CALM      30.36R
6HR MIN TEMP:  50; 6HR MAX TEMP:  59;

AUGUSTA DANIEL SUNNY     65  54  67 E6        30.36R
6HR MIN TEMP:  61; 6HR MAX TEMP:  67;

THOMSON        SUNNY     56  56  99 CALM      30.40R
6HR MIN TEMP:  50; 6HR MAX TEMP:  56;

WASHINGTON     FAIR      61  61 100 CALM      30.37R
CLAXTON        FAIR      63  63 100 CALM      30.34R
SYLVANIA       SUNNY     65  63  93 E5        30.35R
6HR MIN TEMP:  56; 6HR MAX TEMP:  65;

STATESBORO     SUNNY     64  64 100 NE3       30.35R
6HR MIN TEMP:  54; 6HR MAX TEMP:  64;

SAVANNAH       MOSUNNY   66  62  87 NE10      30.33R
6HR MIN TEMP:  59; 6HR MAX TEMP:  66;



...SOUTHERN NORTH CAROLINA...

CITY           SKY/WX    TMP DP  RH WIND       PRES   REMARKS
CHARLOTTE      MOSUNNY   60  49  66 N5        30.40R
6HR MIN TEMP:  47; 6HR MAX TEMP:  60;

MONROE         SUNNY     59  49  69 NE5       30.39R
6HR MIN TEMP:  50; 6HR MAX TEMP:  59;

WADESBORO      SUNNY     53  50  92 CALM      30.40R
6HR MIN TEMP:  45; 6HR MAX TEMP:  53;

ROCKINGHAM     SUNNY     57  50  75 CALM      30.39R
6HR MIN TEMP:  49; 6HR MAX TEMP:  57;

RUTHERFORDTON  MOSUNNY   55  47  73 CALM      30.41S
6HR MIN TEMP:  46; 6HR MAX TEMP:  57;

ASHEVILLE      SUNNY     48  43  82 CALM      30.44R
6HR MIN TEMP:  44; 6HR MAX TEMP:  51;


$$



USA.gov is the U.S. government's official web portal to all federal, state and local government web resources and services.